This demonstration page uses our WeatherBlox Daily Observations layout. Learn more.

Left ArrowRight Arrow

Hourly Observations for September 7, 2020

Temp ( °F °C ) Dew Point ( °F °C ) Humidity (%) Winds ( mph kmh ) Pressure ( in mb ) Visibility ( mi km ) Precip ( " mm )
12:59 am 00:59 Clear 65 18.3 58 14.4 78 78 Calm 30.12 1020 10 16 0.00 0.00
1:59 am 01:59 Clear 65 18.3 59 15 81 81 Calm 30.11 1020 10 16 0.00 0.00
2:59 am 02:59 Clear 64 17.8 60 15.6 87 87 Calm 30.09 1019 10 16 0.00 0.00
3:59 am 03:59 Clear 64 17.8 60 15.6 87 87 Calm 30.07 1018 10 16 0.00 0.00
4:59 am 04:59 Clear 63 17.2 59 15 87 87 Calm 30.06 1018 10 16 0.00 0.00
5:59 am 05:59 Clear 63 17.2 60 15.6 90 90 Calm 30.07 1018 10 16 0.00 0.00
6:59 am 06:59 Partly Cloudy 63 17.2 60 15.6 90 90 Calm 30.07 1018 10 16 0.00 0.00
7:59 am 07:59 Partly Cloudy 69 20.6 64 17.8 84 84 VRB 3 6 30.07 1018 10 16 0.00 0.00
8:59 am 08:59 Partly Cloudy 76 24.4 65 18.3 69 69 NE 9 15 30.09 1019 10 16 0.00 0.00
9:59 am 09:59 Mostly Cloudy 78 25.6 66 18.9 67 67 NNE 8 13 30.11 1020 10 16 0.00 0.00
10:59 am 10:59 Mostly Cloudy 79 26.1 66 18.9 65 65 NNE 10 17 30.10 1019 10 16 0.00 0.00
11:59 am 11:59 Partly Cloudy 80 26.7 67 19.4 64 64 ENE 9 15 30.08 1019 10 16 0.00 0.00
12:59 pm 12:59 Mostly Cloudy 81 27.2 68 20 65 65 NE 10 17 30.08 1019 10 16 0.00 0.00
1:59 pm 13:59 Mostly Cloudy 80 26.7 68 20 67 67 E 12 19 30.06 1018 10 16 0.00 0.00
2:59 pm 14:59 Mostly Cloudy 80 26.7 68 20 67 67 ENE 12 19 30.04 1017 10 16 0.00 0.00
3:59 pm 15:59 Mostly Cloudy 80 26.7 67 19.4 64 64 ENE 14 22 30.02 1017 10 16 0.00 0.00
4:59 pm 16:59 Cloudy 80 26.7 66 18.9 62 62 E 12 19 30.02 1017 10 16 0.00 0.00
5:59 pm 17:59 Cloudy 78 25.6 66 18.9 67 67 ENE 13 20 30.02 1017 10 16 0.00 0.00
6:59 pm 18:59 Mostly Cloudy 77 25 66 18.9 69 69 E 8 13 30.02 1017 10 16 0.00 0.00
7:59 pm 19:59 Mostly Cloudy 77 25 65 18.3 66 66 E 8 13 30.03 1017 10 16 0.00 0.00
8:59 pm 20:59 Mostly Cloudy 75 23.9 66 18.9 74 74 E 6 9 30.04 1017 10 16 0.00 0.00
9:59 pm 21:59 Mostly Cloudy 76 24.4 66 18.9 72 72 E 7 11 30.06 1018 10 16 0.00 0.00
10:59 pm 22:59 Mostly Cloudy 76 24.4 65 18.3 69 69 NE 6 9 30.07 1018 10 16 0.00 0.00
11:59 pm 23:59 Mostly Cloudy 75 23.9 62 16.7 64 64 NNE 6 9 30.06 1018 10 16 0.00 0.00

Powered by AerisWeather